This demonstration page uses our WeatherBlox Daily Observations layout. Learn more.

39.29038, -76.61219

Hourly Observations for October 15, 2015

Temp ( °F °C ) Dew Point ( °F °C ) Humidity (%) Winds ( mph kmh ) Pressure ( in mb ) Visibility ( mi km ) Precip ( " mm )
12:54 am 00:54 undefined 58 14.4 43 6.1 58 58 undefined N/A 29.95 1014 N/A 0 0
1:54 am 01:54 undefined 57 13.9 44 6.7 62 62 undefined N/A 29.96 1015 N/A 0 0
2:54 am 02:54 undefined 55 12.8 44 6.7 67 67 undefined N/A 29.97 1015 N/A 0 0
3:54 am 03:54 undefined 55 12.8 43 6.1 64 64 undefined N/A 29.98 1015 N/A 0 0
4:54 am 04:54 undefined 55 12.8 43 6.1 64 64 undefined N/A 30 1016 N/A 0 0
5:54 am 05:54 undefined 54 12.2 43 6.1 67 67 undefined N/A 30.01 1016 N/A 0 0
6:54 am 06:54 undefined 53 11.7 42 5.6 66 66 undefined N/A 30.03 1017 N/A 0 0
7:54 am 07:54 undefined 53 11.7 42 5.6 66 66 undefined N/A 30.05 1018 N/A 0 0
8:54 am 08:54 undefined 55 12.8 42 5.6 62 62 undefined N/A 30.07 1018 N/A 0 0
9:54 am 09:54 undefined 58 14.4 42 5.6 56 56 undefined N/A 30.09 1019 N/A 0 0
10:54 am 10:54 undefined 61 16.1 39 3.9 44 44 undefined N/A 30.09 1019 N/A 0 0
11:54 am 11:54 undefined 61 16.1 38 3.3 43 43 undefined N/A 30.07 1018 N/A 0 0
12:54 pm 12:54 undefined 63 17.2 38 3.3 40 40 undefined N/A 30.06 1018 N/A 0 0
1:54 pm 13:54 undefined 64 17.8 39 3.9 40 40 undefined N/A 30.03 1017 N/A 0 0
2:54 pm 14:54 undefined 65 18.3 38 3.3 37 37 undefined N/A 30.02 1017 N/A 0 0
3:54 pm 15:54 undefined 66 18.9 37 2.8 34 34 undefined N/A 30.01 1016 N/A 0 0
4:54 pm 16:54 undefined 65 18.3 36 2.2 34 34 undefined N/A 30.02 1017 N/A 0 0
5:54 pm 17:54 undefined 64 17.8 36 2.2 35 35 undefined N/A 30.02 1017 N/A 0 0
6:54 pm 18:54 undefined 62 16.7 38 3.3 41 41 undefined N/A 30.02 1017 N/A 0 0
7:54 pm 19:54 undefined 61 16.1 40 4.4 46 46 undefined N/A 30.03 1017 N/A 0 0
8:54 pm 20:54 undefined 59 15 41 5 51 51 undefined N/A 30.03 1017 N/A 0 0
9:54 pm 21:54 undefined 57 13.9 42 5.6 58 58 undefined N/A 30.02 1017 N/A 0 0
10:54 pm 22:54 undefined 57 13.9 42 5.6 58 58 undefined N/A 30.01 1016 N/A 0 0
11:54 pm 23:54 undefined 55 12.8 43 6.1 64 64 undefined N/A 30 1016 N/A 0 0

Powered by AerisWeather